Weather History for KRIC - February, 2014

Change the Weather History Date:

Friday, February 21, 2014

  Actual Average Record
Temperature  
Mean Temperature 58 °F 42 °F  
Max Temperature 71 °F 53 °F 75 °F (1930)
Min Temperature 45 °F 31 °F 4 °F (2015)
Degree Days  
Heating Degree Days 7 23  
Month to date heating degree days 530 521  
Since 1 July heating degree days 2783 2782  
Cooling Degree Days 0 0  
Month to date cooling degree days 0 0  
Year to date cooling degree days 0 0  
Growing Degree Days 8 (Base 50)    
Moisture  
Dew Point 52 °F    
Average Humidity 72    
Maximum Humidity 96    
Minimum Humidity 47    
Precipitation  
Precipitation 0.36 in 0.10 in 1.34 in (1954)
Month to date precipitation 3.03 2.04  
Year to date precipitation 6.31 5.08  
Snow  
Snow 0.00 in 0.10 in 2.00 in (1929)
Month to date snowfall 5.8 2.7  
Since 1 July snowfall 10.9 8.9  
Snow Depth 0.00 in    
Sea Level Pressure  
Sea Level Pressure 29.86 in    
Wind  
Wind Speed 12 mph (SSW)    
Max Wind Speed 41 mph    
Max Gust Speed 54 mph    
Visibility 9 miles    
Events Rain , Thunderstorm    
T = Trace of Precipitation, MM = Missing Value Source: NWS Daily Summary

Daily Weather History Graph

Daily Weather History Graph

Search for Another Location

Airport or City:

Trip Planner

Search our weather history database for the weather conditions in past years. The results will help you decide how hot, cold, wet, or windy it might be!

Date:

Astronomy

Feb. 21, 2014 Rise Set
Actual Time 6:51 AM EST 5:55 PM EST
Civil Twilight 6:24 AM EST 6:21 PM EST
Nautical Twilight 5:54 AM EST 6:52 PM EST
Astronomical Twilight 5:24 AM EST 7:22 PM EST
Moon No Moon Rise 10:21 AM EST (2/21)
Length of Visible Light 11h 56m
Length of Day
11h 03m
Waning Gibbous, 61% of the Moon is Illuminated
Feb 21
Waning Gibbous
Feb 22
Last Quarter
Mar 1
New
Mar 8
First Quarter
Mar 16
Full

Hourly Weather History & Observations

Time (EST) Temp. Dew Point Humidity Pressure Visibility Wind Dir Wind Speed Gust Speed Precip Events Conditions
12:54 AM 48.9 °F 42.1 °F 77% 29.95 in 10.0 mi SSE 4.6 mph - N/A   Mostly Cloudy
1:54 AM 48.9 °F 45.0 °F 86% 29.93 in 10.0 mi South 6.9 mph - N/A   Mostly Cloudy
2:54 AM 51.1 °F 50.0 °F 96% 29.92 in 7.0 mi South 8.1 mph - N/A   Mostly Cloudy
3:54 AM 57.9 °F 55.0 °F 90% 29.90 in 10.0 mi South 11.5 mph - N/A   Mostly Cloudy
4:54 AM 62.1 °F 57.9 °F 86% 29.90 in 10.0 mi South 12.7 mph - N/A   Mostly Cloudy
5:54 AM 63.0 °F 59.0 °F 87% 29.88 in 10.0 mi South 15.0 mph - N/A   Overcast
6:13 AM 64.4 °F 59.0 °F 83% 29.86 in 10.0 mi South 13.8 mph - N/A   Overcast
6:54 AM 64.0 °F 59.0 °F 84% 29.87 in 10.0 mi South 16.1 mph 25.3 mph N/A   Mostly Cloudy
7:54 AM 66.0 °F 60.1 °F 81% 29.86 in 10.0 mi South 18.4 mph - N/A   Overcast
8:33 AM 66.2 °F 60.8 °F 83% 29.84 in 10.0 mi South 17.3 mph 25.3 mph N/A   Overcast
8:54 AM 66.9 °F 60.1 °F 79% 29.85 in 10.0 mi South 23.0 mph 28.8 mph N/A   Overcast
9:54 AM 69.1 °F 60.1 °F 73% 29.83 in 10.0 mi South 24.2 mph 31.1 mph N/A   Overcast
10:54 AM 70.0 °F 60.1 °F 71% 29.79 in 10.0 mi South 26.5 mph 31.1 mph N/A   Overcast
11:54 AM 71.1 °F 61.0 °F 70% 29.77 in 10.0 mi South 19.6 mph 34.5 mph N/A   Overcast
11:57 AM 71.6 °F 60.8 °F 69% 29.75 in 10.0 mi SSW 20.7 mph 34.5 mph N/A Thunderstorm Thunderstorm
12:02 PM 68.0 °F 59.0 °F 73% 29.82 in 0.8 mi West 34.5 mph 54.1 mph 0.00 in Rain , Thunderstorm Light Thunderstorms and Rain
12:11 PM 62.6 °F 57.2 °F 82% 29.79 in 0.5 mi SW 24.2 mph 38.0 mph 0.19 in Rain , Thunderstorm Heavy Thunderstorms and Rain
12:17 PM 62.6 °F 57.2 °F 82% 29.78 in 1.8 mi SSW 17.3 mph 31.1 mph 0.29 in Rain , Thunderstorm Thunderstorms and Rain
12:19 PM 62.6 °F 57.2 °F 82% 29.78 in 3.0 mi SSW 18.4 mph 31.1 mph 0.29 in Rain , Thunderstorm Light Thunderstorms and Rain
12:54 PM 63.0 °F 57.0 °F 81% 29.76 in 10.0 mi SW 13.8 mph 25.3 mph 0.33 in Rain Light Rain
1:54 PM 64.0 °F 57.9 °F 80% 29.75 in 10.0 mi SW 11.5 mph - 0.03 in   Overcast
2:23 PM 64.4 °F 57.2 °F 77% 29.76 in 10.0 mi SSW 11.5 mph - N/A   Overcast
2:54 PM 64.0 °F 57.9 °F 80% 29.78 in 10.0 mi WSW 10.4 mph - N/A   Overcast
3:49 PM 62.6 °F 48.2 °F 59% 29.80 in 10.0 mi WNW 11.5 mph - N/A   Overcast
3:54 PM 62.1 °F 48.9 °F 62% 29.81 in 10.0 mi West 9.2 mph - N/A   Mostly Cloudy
4:54 PM 61.0 °F 46.0 °F 58% 29.83 in 10.0 mi WSW 8.1 mph - N/A   Mostly Cloudy
5:54 PM 59.0 °F 39.9 °F 49% 29.86 in 10.0 mi WSW 9.2 mph - N/A   Mostly Cloudy
6:54 PM 54.0 °F 39.0 °F 57% 29.91 in 10.0 mi WSW 5.8 mph - N/A   Mostly Cloudy
7:54 PM 50.0 °F 39.0 °F 66% 29.93 in 10.0 mi SW 5.8 mph - N/A   Partly Cloudy
8:54 PM 48.9 °F 39.0 °F 69% 29.95 in 10.0 mi South 4.6 mph - N/A   Clear
9:54 PM 48.9 °F 36.0 °F 61% 29.98 in 10.0 mi WSW 4.6 mph - N/A   Clear
10:54 PM 48.0 °F 35.1 °F 61% 30.00 in 10.0 mi WSW 3.5 mph - N/A   Clear
11:54 PM 46.9 °F 35.1 °F 63% 30.01 in 10.0 mi West 4.6 mph - N/A   Clear